Defuniak Springs, Defuniak Sp, FL

11:36 PM CDT on March 28, 2017 (GMT -0500)
Defuniak Springs, Defuniak Sp

Weather History for K54J - January, 2014

Change the Weather History Date:

Tuesday, January 7, 2014

  Actual Average (KCEW) Record (KCEW)
Temperature  
Mean Temperature 23 °F -  
Max Temperature 31 °F 65 °F 81 °F (1982)
Min Temperature 15 °F 45 °F 17 °F (2014)
Degree Days  
Heating Degree Days 42    
Moisture  
Dew Point 3 °F    
Average Humidity 42    
Maximum Humidity 55    
Minimum Humidity 29    
Precipitation  
Precipitation 0.00 in - - ()
Sea Level Pressure  
Sea Level Pressure 30.54 in    
Wind  
Wind Speed 9 mph (North)    
Max Wind Speed 14 mph    
Max Gust Speed 23 mph    
Visibility 10 miles    
Events      
Averages and records for this station are not official NWS values.
T = Trace of Precipitation, MM = Missing Value Source: NWS Daily Summary

Daily Weather History Graph

Daily Weather History Graph

Search for Another Location

Airport or City:

Trip Planner

Search our weather history database for the weather conditions in past years. The results will help you decide how hot, cold, wet, or windy it might be!

Date:

Astronomy

Jan. 07, 2014 Rise Set
Actual Time 6:43 AM CST 4:58 PM CST
Civil Twilight 6:16 AM CST 5:25 PM CST
Nautical Twilight 5:46 AM CST 5:55 PM CST
Astronomical Twilight 5:17 AM CST 6:24 PM CST
Moon 11:01 AM CST (1/7) No Moon Set
Length of Visible Light 11h 08m
Length of Day
10h 15m
Waxing Crescent, 46% of the Moon is Illuminated
Jan 7
Waxing Crescent
Jan 7
First Quarter
Jan 15
Full
Jan 23
Last Quarter
Jan 30
New

Hourly Weather History & Observations

Time (CST) Temp. Windchill Dew Point Humidity Pressure Visibility Wind Dir Wind Speed Gust Speed Precip Events Conditions
12:15 AM 21.2 °F 10.1 °F 0.9 °F 41% 30.52 in 10.0 mi NNW 10.4 mph 19.6 mph N/A   Clear
12:35 AM 20.8 °F 8.4 °F 1.2 °F 43% 30.52 in 10.0 mi NNW 12.7 mph 17.3 mph N/A   Clear
12:55 AM 20.3 °F 8.3 °F 1.9 °F 45% 30.53 in 10.0 mi North 11.5 mph - N/A   Clear
1:15 AM 20.3 °F 10.6 °F 2.3 °F 46% 30.54 in 10.0 mi NNW 8.1 mph - N/A   Clear
1:35 AM 19.9 °F 7.9 °F 1.6 °F 45% 30.54 in 10.0 mi North 11.5 mph 18.4 mph N/A   Clear
1:50 AM 19.4 °F 6.0 °F -0.4 °F 42% 30.54 in 10.0 mi North 13.8 mph 23.0 mph N/A   Clear
2:15 AM 19.2 °F 7.7 °F 0.9 °F 45% 30.54 in 10.0 mi North 10.4 mph - N/A   Clear
2:35 AM 19.0 °F 6.8 °F 1.0 °F 46% 30.53 in 10.0 mi NNW 11.5 mph 16.1 mph N/A   Clear
2:55 AM 18.5 °F 6.8 °F 0.7 °F 46% 30.53 in 10.0 mi North 10.4 mph 16.1 mph N/A   Clear
3:15 AM 18.1 °F 7.9 °F -0.0 °F 45% 30.53 in 10.0 mi North 8.1 mph 18.4 mph N/A   Clear
3:35 AM 18.0 °F 6.1 °F -0.4 °F 45% 30.53 in 10.0 mi North 10.4 mph - N/A   Clear
3:55 AM 17.6 °F 8.2 °F -0.2 °F 46% 30.53 in 10.0 mi North 6.9 mph - N/A   Clear
4:15 AM 17.2 °F 7.8 °F 0.3 °F 48% 30.53 in 10.0 mi North 6.9 mph - N/A   Clear
4:35 AM 17.1 °F 6.6 °F -0.2 °F 47% 30.54 in 10.0 mi North 8.1 mph - N/A   Clear
4:55 AM 17.1 °F 3.6 °F -1.1 °F 45% 30.54 in 10.0 mi North 12.7 mph 18.4 mph N/A   Clear
5:15 AM 16.9 °F 6.4 °F -1.8 °F 44% 30.55 in 10.0 mi North 8.1 mph 16.1 mph N/A   Clear
5:35 AM 16.7 °F 6.2 °F -1.3 °F 45% 30.55 in 10.0 mi North 8.1 mph - N/A   Clear
5:55 AM 16.5 °F 5.1 °F 1.0 °F 51% 30.56 in 10.0 mi NNW 9.2 mph - N/A   Clear
6:15 AM 16.2 °F 6.5 °F -0.2 °F 49% 30.56 in 10.0 mi North 6.9 mph - N/A   Clear
6:35 AM 16.0 °F 6.3 °F -0.0 °F 49% 30.58 in 10.0 mi North 6.9 mph - N/A   Clear
6:55 AM 15.8 °F 7.2 °F 0.7 °F 51% 30.59 in 10.0 mi NNW 5.8 mph - N/A   Clear
7:15 AM 16.2 °F 6.5 °F 1.0 °F 51% 30.60 in 10.0 mi NNW 6.9 mph - N/A   Clear
7:35 AM 16.3 °F 4.9 °F 0.3 °F 49% 30.61 in 10.0 mi North 9.2 mph - N/A   Clear
7:55 AM 16.7 °F 6.2 °F 0.1 °F 48% 30.61 in 10.0 mi NNW 8.1 mph - N/A   Clear
8:15 AM 16.5 °F 5.1 °F -0.6 °F 47% 30.62 in 10.0 mi North 9.2 mph - N/A   Clear
8:35 AM 17.1 °F 5.0 °F -0.4 °F 46% 30.61 in 10.0 mi NNE 10.4 mph - N/A   Clear
8:55 AM 18.0 °F 8.7 °F -0.9 °F 44% 30.63 in 10.0 mi NNW 6.9 mph - N/A   Clear
9:15 AM 19.0 °F 6.8 °F -0.8 °F 42% 30.63 in 10.0 mi North 11.5 mph - N/A   Clear
9:35 AM 19.2 °F 9.3 °F -1.3 °F 41% 30.62 in 10.0 mi NNW 8.1 mph - N/A   Clear
9:55 AM 21.0 °F 12.4 °F 0.1 °F 40% 30.61 in 10.0 mi NNE 6.9 mph - N/A   Clear
10:15 AM 20.8 °F 9.7 °F -0.4 °F 40% 30.61 in 10.0 mi NNE 10.4 mph - N/A   Clear
10:35 AM 22.3 °F 13.0 °F -0.8 °F 37% 30.59 in 10.0 mi NE 8.1 mph - N/A   Clear
10:55 AM 24.4 °F 14.2 °F -0.0 °F 35% 30.59 in 10.0 mi NNW 10.4 mph - N/A   Clear
11:15 AM 24.4 °F 14.9 °F 0.1 °F 35% 30.57 in 10.0 mi North 9.2 mph - N/A   Clear
11:35 AM 24.6 °F 13.8 °F 0.3 °F 35% 30.56 in 10.0 mi North 11.5 mph - N/A   Clear
11:55 AM 24.6 °F 15.8 °F -0.0 °F 34% 30.54 in 10.0 mi NNE 8.1 mph - N/A   Clear
12:15 PM 26.1 °F 16.8 °F 0.7 °F 34% 30.52 in 10.0 mi North 9.2 mph - N/A   Clear
12:35 PM 28.0 °F 20.8 °F 1.6 °F 32% 30.51 in 10.0 mi NNW 6.9 mph - N/A   Clear
12:55 PM 28.9 °F 19.8 °F 2.5 °F 32% 30.51 in 10.0 mi NNE 10.4 mph 16.1 mph N/A   Clear
1:15 PM 28.4 °F 20.4 °F 2.3 °F 33% 30.51 in 10.0 mi North 8.1 mph 16.1 mph N/A   Clear
1:35 PM 29.3 °F 23.2 °F 2.3 °F 32% 30.51 in 10.0 mi North 5.8 mph - N/A   Clear
1:55 PM 29.7 °F 21.3 °F 1.4 °F 30% 30.51 in 10.0 mi North 9.2 mph - N/A   Clear
2:15 PM 29.8 °F 23.0 °F 2.1 °F 31% 30.51 in 10.0 mi NNE 6.9 mph - N/A   Clear
2:35 PM 29.7 °F 22.0 °F 2.3 °F 31% 30.51 in 10.0 mi NW 8.1 mph - N/A   Clear
2:55 PM 31.1 °F 25.4 °F 1.8 °F 29% 30.51 in 10.0 mi NNW 5.8 mph - N/A   Clear
3:15 PM 30.2 °F 23.4 °F 1.6 °F 30% 30.51 in 10.0 mi NNE 6.9 mph - N/A   Clear
3:35 PM 30.7 °F 24.1 °F 1.6 °F 29% 30.52 in 10.0 mi NW 6.9 mph - N/A   Clear
3:50 PM 30.7 °F 24.9 °F 1.9 °F 29% 30.52 in 10.0 mi North 5.8 mph - N/A   Clear
4:15 PM 29.8 °F 23.0 °F 1.8 °F 30% 30.52 in 10.0 mi North 6.9 mph - N/A   Clear
4:35 PM 28.9 °F 19.8 °F 1.9 °F 32% 30.52 in 10.0 mi North 10.4 mph - N/A   Clear
4:55 PM 28.0 °F 21.7 °F 2.8 °F 34% 30.52 in 10.0 mi North 5.8 mph - N/A   Clear
5:15 PM 27.7 °F 20.4 °F 3.9 °F 36% 30.52 in 10.0 mi North 6.9 mph - N/A   Clear
5:35 PM 27.5 °F 23.6 °F 4.6 °F 38% 30.53 in 10.0 mi NNE 3.5 mph - N/A   Clear
5:55 PM 27.5 °F 23.6 °F 5.5 °F 39% 30.53 in 10.0 mi NNE 3.5 mph - N/A   Clear
6:15 PM 27.1 °F 23.2 °F 7.0 °F 43% 30.53 in 10.0 mi North 3.5 mph - N/A   Clear
6:35 PM 27.1 °F 21.8 °F 6.6 °F 42% 30.53 in 10.0 mi North 4.6 mph - N/A   Clear
6:55 PM 27.0 °F 23.0 °F 6.6 °F 42% 30.53 in 10.0 mi North 3.5 mph - N/A   Clear
7:15 PM 26.6 °F 21.2 °F 6.4 °F 42% 30.54 in 10.0 mi North 4.6 mph - N/A   Clear
7:35 PM 26.2 °F 22.1 °F 6.8 °F 44% 30.54 in 10.0 mi North 3.5 mph - N/A   Clear
7:55 PM 25.5 °F 19.9 °F 7.3 °F 46% 30.54 in 10.0 mi North 4.6 mph - N/A   Clear
8:15 PM 25.5 °F 19.9 °F 7.0 °F 45% 30.54 in 10.0 mi North 4.6 mph - N/A   Clear
8:35 PM 25.2 °F 17.3 °F 7.7 °F 48% 30.53 in 10.0 mi North 6.9 mph - N/A   Clear
8:55 PM 24.8 °F 19.1 °F 8.2 °F 49% 30.53 in 10.0 mi North 4.6 mph - N/A   Clear
9:15 PM 24.4 °F 16.5 °F 8.6 °F 51% 30.52 in 10.0 mi North 6.9 mph - N/A   Clear
9:35 PM 24.3 °F 17.3 °F 8.4 °F 51% 30.52 in 10.0 mi NNE 5.8 mph - N/A   Clear
9:55 PM 24.3 °F 16.3 °F 8.1 °F 50% 30.51 in 10.0 mi NNE 6.9 mph - N/A   Clear
10:15 PM 23.9 °F 14.2 °F 8.4 °F 52% 30.49 in 10.0 mi NNE 9.2 mph - N/A   Clear
10:35 PM 23.9 °F 14.2 °F 7.7 °F 50% 30.48 in 10.0 mi NE 9.2 mph - N/A   Clear
10:55 PM 23.5 °F 14.5 °F 8.4 °F 53% 30.49 in 10.0 mi NE 8.1 mph - N/A   Clear
11:15 PM 23.0 °F 14.7 °F 7.9 °F 52% 30.49 in 10.0 mi NE 6.9 mph - N/A   Clear
11:35 PM 22.6 °F 15.3 °F 8.2 °F 54% 30.49 in 10.0 mi NE 5.8 mph - N/A   Clear
11:50 PM 22.3 °F 16.1 °F 8.4 °F 55% 30.49 in 10.0 mi NNE 4.6 mph - N/A   Clear